Content
SEND FEEDBACK

Daily
Averages
Monthly
Summary
Mexico

COZUMEL, QUINTANA ROO


Home > North America > Mexico > Quintana Roo
Elevation: 4 meters     Latitude: 20 31N     Longitude: 086 56W

WEATHER
 
SELECT A DAY
Number of Records: 124,615;   Date Range: 1/1/95 - 7/28/14
 
SHARE

PRINT THIS DATA

[ ← Previous Day ]
WEATHER ALMANAC - 8 DECEMBER, 2013
[ Next Day → ]
[ °F ]   °C
Weather ElementAverageHighLow
Temperature22.6 °C27 °C (9:41 am)18 °C (10:40 pm)
Dewpoint20.2 °C21 °C (7:48 am)18 °C (10:40 pm)
Humidity87.5 %100 % (2:33 am)70 % (9:41 am)
Barometer1017.3 hPa1019.6 hPa (8:40 am)1015.6 hPa (3:47 pm)
Wind Speed8.4 km/h24.1 km/h (10:46 am)
Weather ElementAverage
Visibility12.1 km
Wind DirectionENE (61.4 °)

Weather ElementTotal
Precipitation---
Cooling Degree Days4.2 (Base 18.3)
Growing Degree Days12.5 (Base 10)
Averaged from 22 records on 8 December, 2013
WEATHER CONDITIONS BREAKOUT
WIND DIRECTION BREAKOUT
WEATHER BY HOUR - 8 DECEMBER, 2013
[ °F ]   °C
Local TimeTemperatureDewpointHumidityBarometerVisibilityWind DirectionWind SpeedGust SpeedPrecipitationEventsConditions
2:33 AM19 °C19 °C100 %1016.3 hPa11.3 kmCalmClear
3:46 AM21 °C20 °C94 %1016.6 hPa11.3 kmEast (100°)7.4 km/hPartly Cloudy
4:42 AM20 °C20 °C100 %1016.6 hPa11.3 kmCalmPartly Cloudy
5:45 AM19 °C19 °C100 %1016.9 hPa11.3 kmCalmPartly Cloudy
6:46 AM20 °C20 °C100 %1017.9 hPa11.3 kmEast (80°)7.4 km/hScattered Clouds
7:48 AM23 °C21 °C88 %1018.3 hPa12.9 kmESE (110°)13 km/hPartly Cloudy
8:40 AM26 °C21 °C74 %1019.6 hPa12.9 kmEast (100°)13 km/hPartly Cloudy
9:41 AM27 °C21 °C70 %1018.6 hPa12.9 kmESE (110°)22.2 km/hScattered Clouds
10:46 AM27 °C21 °C70 %1018.6 hPa12.9 kmESE (110°)24.1 km/hScattered Clouds
11:48 AM27 °C21 °C70 %1017.3 hPa12.9 kmEast (80°)16.7 km/hScattered Clouds
12:45 PM27 °C21 °C70 %1016.6 hPa12.9 kmESE (110°)22.2 km/hMostly Cloudy
1:46 PM27 °C21 °C70 %1015.9 hPa12.9 kmSE (130°)18.5 km/hScattered Clouds
2:45 PM27 °C21 °C70 %1016.6 hPa12.9 kmEast (90°)13 km/hMostly Cloudy
3:47 PM25 °C21 °C78 %1015.6 hPa12.9 kmEast (100°)13 km/hScattered Clouds
4:48 PM24 °C21 °C83 %1015.9 hPa12.9 kmESE (120°)7.4 km/hScattered Clouds
5:41 PM22 °C21 °C94 %1015.9 hPa11.3 kmESE (110°)5.6 km/hPartly Cloudy
6:54 PM21 °C20 °C94 %1016.6 hPa11.3 kmCalmPartly Cloudy
7:55 PM20 °C20 °C100 %1017.3 hPa11.3 kmCalmClear
8:44 PM20 °C20 °C100 %1018.6 hPa11.3 kmCalmClear
9:44 PM19 °C19 °C100 %1017.6 hPa11.3 kmCalmClear
10:40 PM18 °C18 °C100 %1017.6 hPa11.3 kmCalmClear
11:48 PM18 °C18 °C100 %1016.9 hPa11.3 kmCalmClear
Hourly data recorded from MMCZ, located 0 kilometers away from Cozumel, Quintana Roo







STORIES FROM OUR PARTNERS